When you browse on this site, cookies collect data to enhance your experience and personalize the content and advertising you see.
Visit our Privacy Policy to learn more. By continuing to use the site, you agree to this use of cookies and data.
  • In Italy
  • List of Countries
  • For 7 days
  • Water Temperature
  • Satellite Maps
  • Weather Map
  • Weather Widgets
  • user-avatar
    Login

    Hourly Weather Belyaevo

    Today, 16 November, Friday

    Time Temperature Precipitation Wind Pressure Humidity
    00:00 -3°C° 0 mm 2 mps 765 mmHg 43%
    01:00 -3°C° 0 mm 2 mps 766 mmHg 41%
    02:00 -4°C° 0 mm 2 mps 766 mmHg 42%
    03:00 -4°C° 0 mm 2 mps 766 mmHg 40%
    04:00 -4°C° 0 mm 2 mps 766 mmHg 38%
    05:00 -4°C° 0 mm 2 mps 767 mmHg 36%
    06:00 -4°C° 0 mm 2 mps 767 mmHg 34%
    07:00 -4°C° 0 mm 2 mps 767 mmHg 33%
    08:00 -4°C° 0 mm 2 mps 767 mmHg 31%
    09:00 -3°C° 0 mm 2 mps 768 mmHg 28%
    10:00 -2°C° 0 mm 2 mps 768 mmHg 26%
    11:00 -1°C° 0 mm 2 mps 768 mmHg 24%
    12:00 -1°C° 0 mm 2 mps 768 mmHg 24%
    13:00 -1°C° 0 mm 2 mps 768 mmHg 25%
    14:00 +1°C° 0 mm 1 mps 768 mmHg 31%
    15:00 +1°C° 0 mm 1 mps 768 mmHg 32%
    16:00 -2°C° 0 mm 2 mps 768 mmHg 32%
    17:00 -3°C° 0 mm 2 mps 768 mmHg 33%
    18:00 -3°C° 0 mm 2 mps 768 mmHg 32%
    19:00 -3°C° 0 mm 2 mps 768 mmHg 31%
    20:00 -3°C° 0 mm 2 mps 768 mmHg 30%
    21:00 -3°C° 0 mm 2 mps 768 mmHg 29%
    22:00 -1°C° 0 mm 1 mps 768 mmHg 28%
    23:00 -1°C° 0 mm 1 mps 768 mmHg 27%

    Tomorrow, 17 November, Saturday

    Time Temperature Precipitation Wind Pressure Humidity
    00:00 -1°C° 0 mm 1 mps 768 mmHg 26%
    01:00 -1°C° 0 mm 1 mps 768 mmHg 26%
    02:00 -1°C° 0 mm 1 mps 768 mmHg 25%
    03:00 -2°C° 0 mm 1 mps 767 mmHg 25%
    04:00 -2°C° 0 mm 1 mps 767 mmHg 24%
    05:00 -2°C° 0 mm 1 mps 767 mmHg 24%
    06:00 -2°C° 0 mm 1 mps 767 mmHg 24%
    07:00 -1°C° 0 mm 1 mps 766 mmHg 24%
    08:00 -1°C° 0 mm 1 mps 766 mmHg 24%
    09:00 0°C° 0 mm 1 mps 766 mmHg 23%
    10:00 +1°C° 0 mm 1 mps 765 mmHg 22%
    11:00 +2°C° 0 mm 1 mps 765 mmHg 21%
    12:00 +2°C° 0 mm 1 mps 764 mmHg 22%
    13:00 +1°C° 0 mm 2 mps 764 mmHg 24%
    14:00 +1°C° 0 mm 2 mps 763 mmHg 25%
    15:00 -1°C° 0 mm 2 mps 762 mmHg 27%
    16:00 -1°C° 0 mm 2 mps 762 mmHg 29%
    17:00 -2°C° 0 mm 3 mps 761 mmHg 30%
    18:00 -2°C° 0 mm 3 mps 761 mmHg 32%
    19:00 -2°C° 0 mm 3 mps 760 mmHg 34%
    20:00 -2°C° 0 mm 3 mps 759 mmHg 35%
    21:00 -2°C° 0 mm 3 mps 759 mmHg 37%
    22:00 -3°C° 0 mm 4 mps 758 mmHg 39%
    23:00 -3°C° 0 mm 4 mps 757 mmHg 41%

    Day after tomorrow, 18 November, Sunday

    Time Temperature Precipitation Wind Pressure Humidity
    00:00 -3°C° 0 mm 4 mps 756 mmHg 44%
    01:00 -3°C° 0 mm 4 mps 756 mmHg 47%
    02:00 -2°C° 0 mm 4 mps 755 mmHg 51%
    03:00 -2°C° 0 mm 4 mps 754 mmHg 55%
    04:00 -3°C° 0 mm 4 mps 753 mmHg 60%
    05:00 -3°C° 0 mm 4 mps 752 mmHg 65%
    06:00 -3°C° 0.1 mm 4 mps 752 mmHg 70%
    07:00 -3°C° 0.1 mm 4 mps 751 mmHg 76%
    08:00 -3°C° 0.1 mm 4 mps 751 mmHg 82%
    09:00 -1°C° 0.1 mm 3 mps 751 mmHg 82%
    10:00 -1°C° 0.1 mm 3 mps 750 mmHg 83%
    11:00 -1°C° 0.1 mm 3 mps 750 mmHg 84%
    12:00 -1°C° 0 mm 3 mps 750 mmHg 84%
    13:00 0°C° 0 mm 3 mps 750 mmHg 84%
    14:00 +1°C° 0 mm 2 mps 749 mmHg 85%
    15:00 -1°C° 0 mm 2 mps 749 mmHg 87%
    16:00 -1°C° 0 mm 2 mps 749 mmHg 89%
    17:00 -1°C° 0 mm 2 mps 749 mmHg 91%
    18:00 -1°C° 0 mm 2 mps 749 mmHg 91%
    19:00 -1°C° 0 mm 2 mps 750 mmHg 92%
    20:00 +1°C° 0 mm 1 mps 750 mmHg 92%
    21:00 +1°C° 0 mm 1 mps 750 mmHg 93%
    22:00 0°C° 0 mm 1 mps 750 mmHg 94%
    23:00 0°C° 0 mm 1 mps 750 mmHg 94%

    19 November, Monday

    Time Temperature Precipitation Wind Pressure Humidity
    00:00 0°C° 0 mm 1 mps 750 mmHg 94%
    01:00 0°C° 0 mm 1 mps 751 mmHg 95%
    02:00 0°C° 0 mm 1 mps 751 mmHg 95%
    03:00 0°C° 0 mm 1 mps 751 mmHg 94%
    04:00 0°C° 0 mm 1 mps 751 mmHg 94%
    05:00 0°C° 0 mm 1 mps 752 mmHg 93%
    06:00 0°C° 0.1 mm 1 mps 752 mmHg 93%
    07:00 0°C° 0.1 mm 1 mps 753 mmHg 93%
    08:00 -2°C° 0.1 mm 2 mps 753 mmHg 93%
    09:00 -1°C° 0.1 mm 2 mps 753 mmHg 90%
    10:00 -1°C° 0.1 mm 2 mps 754 mmHg 87%
    11:00 +1°C° 0.1 mm 2 mps 754 mmHg 84%
    12:00 -1°C° 0.1 mm 2 mps 754 mmHg 82%
    13:00 -1°C° 0.1 mm 2 mps 755 mmHg 81%
    14:00 -1°C° 0.1 mm 2 mps 755 mmHg 79%
    15:00 -1°C° 0 mm 2 mps 755 mmHg 79%
    16:00 -2°C° 0 mm 2 mps 755 mmHg 79%
    17:00 -3°C° 0 mm 2 mps 755 mmHg 79%
    18:00 -3°C° 0 mm 2 mps 756 mmHg 76%
    19:00 -3°C° 0 mm 2 mps 756 mmHg 72%
    20:00 -4°C° 0 mm 3 mps 756 mmHg 69%
    21:00 -4°C° 0 mm 3 mps 756 mmHg 68%
    22:00 -4°C° 0 mm 3 mps 757 mmHg 67%
    23:00 -4°C° 0 mm 3 mps 757 mmHg 66%

    20 November, Tuesday

    Time Temperature Precipitation Wind Pressure Humidity
    00:00 -4°C° 0 mm 3 mps 757 mmHg 67%
    01:00 -4°C° 0 mm 3 mps 757 mmHg 69%
    02:00 -2°C° 0 mm 3 mps 757 mmHg 70%
    03:00 -2°C° 0.1 mm 3 mps 757 mmHg 75%
    04:00 -4°C° 0.1 mm 4 mps 757 mmHg 79%
    05:00 -4°C° 0.1 mm 4 mps 757 mmHg 83%
    06:00 -3°C° 0.1 mm 4 mps 757 mmHg 84%
    07:00 -3°C° 0.1 mm 4 mps 756 mmHg 85%
    08:00 -3°C° 0.1 mm 4 mps 756 mmHg 86%
    09:00 -3°C° 0.1 mm 4 mps 756 mmHg 85%
    10:00 -2°C° 0.1 mm 4 mps 756 mmHg 84%
    11:00 -2°C° 0.1 mm 4 mps 756 mmHg 83%
    12:00 -2°C° 0.3 mm 4 mps 755 mmHg 85%
    13:00 -2°C° 0.3 mm 4 mps 755 mmHg 87%
    14:00 -1°C° 0.3 mm 3 mps 755 mmHg 89%
    15:00 -1°C° 0.3 mm 3 mps 754 mmHg 90%
    16:00 -1°C° 0.3 mm 3 mps 754 mmHg 90%
    17:00 -1°C° 0.3 mm 3 mps 754 mmHg 91%
    18:00 -1°C° 0.1 mm 3 mps 754 mmHg 91%
    19:00 -1°C° 0.1 mm 3 mps 754 mmHg 92%
    20:00 -1°C° 0.1 mm 2 mps 754 mmHg 92%
    21:00 -1°C° 0.1 mm 2 mps 754 mmHg 92%
    22:00 -2°C° 0.1 mm 2 mps 754 mmHg 93%
    23:00 -2°C° 0.1 mm 2 mps 754 mmHg 94%

    21 November, Wednesday

    Time Temperature Precipitation Wind Pressure Humidity
    00:00 -2°C° 0 mm 2 mps 754 mmHg 94%
    01:00 -2°C° 0 mm 2 mps 754 mmHg 94%
    02:00 -2°C° 0 mm 2 mps 754 mmHg 94%
    03:00 -2°C° 0 mm 2 mps 753 mmHg 94%
    04:00 -2°C° 0 mm 2 mps 753 mmHg 93%
    05:00 -2°C° 0 mm 2 mps 753 mmHg 93%
    06:00 -2°C° 0 mm 2 mps 753 mmHg 93%
    07:00 -2°C° 0 mm 3 mps 753 mmHg 92%
    08:00 -2°C° 0 mm 3 mps 754 mmHg 91%
    09:00 -2°C° 0 mm 3 mps 754 mmHg 90%
    10:00 -1°C° 0 mm 3 mps 754 mmHg 88%
    11:00 -1°C° 0 mm 3 mps 754 mmHg 86%
    12:00 -1°C° 0 mm 3 mps 754 mmHg 86%
    13:00 -2°C° 0 mm 4 mps 753 mmHg 86%
    14:00 -2°C° 0 mm 4 mps 753 mmHg 86%
    15:00 -3°C° 0 mm 4 mps 753 mmHg 86%
    16:00 -3°C° 0 mm 4 mps 753 mmHg 87%
    17:00 -3°C° 0 mm 4 mps 753 mmHg 87%
    18:00 -3°C° 0 mm 4 mps 754 mmHg 87%
    19:00 -4°C° 0 mm 4 mps 754 mmHg 88%
    20:00 -4°C° 0 mm 4 mps 754 mmHg 88%
    21:00 -4°C° 0 mm 4 mps 754 mmHg 87%
    22:00 -4°C° 0 mm 4 mps 754 mmHg 86%
    23:00 -5°C° 0 mm 5 mps 754 mmHg 86%
    Show more